Weather History for Batman, Turkey

Change the Weather History Date:

Tuesday, July 24, 2012

  Actual Average (LTCC) Record (LTCC)
Temperature  
Mean Temperature 92 °F -  
Max Temperature 111 °F 100 °F 110 °F (2012)
Min Temperature 73 °F 72 °F 66 °F (2000)
Cooling Degree Days 27    
Growing Degree Days 42 (Base 50)    
Moisture  
Dew Point 47 °F    
Average Humidity 21    
Maximum Humidity 53    
Minimum Humidity 9    
Precipitation  
Precipitation 0.00 in - - ()
Sea Level Pressure  
Sea Level Pressure 29.73 in    
Wind  
Wind Speed 5 mph ()    
Max Wind Speed 10 mph    
Max Gust Speed -    
Visibility 6.2 miles    
Events      
Averages and records for this station are not official NWS values.
T = Trace of Precipitation, MM = Missing Value Source: Averaged Metar Reports

Daily Weather History Graph

Daily Weather History Graph

Search for Another Location

Airport:

Trip Planner

Search our weather history database for the weather conditions in past years. The results will help you decide how hot, cold, wet, or windy it might be!

Date:

Astronomy

Jul. 24, 2012 Rise Set
Actual Time 5:12 AM EEST 7:31 PM EEST
Civil Twilight 4:42 AM EEST 8:01 PM EEST
Nautical Twilight 4:05 AM EEST 8:37 PM EEST
Astronomical Twilight 3:25 AM EEST 9:17 PM EEST
Moon 10:38 AM EEST (7/24) 10:14 PM EEST (7/24)
Length of Visible Light 15h 18m
Length of Day
14h 19m
Waxing Crescent, 28% of the Moon is Illuminated
Jul 24
Waxing Crescent
Jul 26
First Quarter
Aug 2
Full
Aug 9
Last Quarter
Aug 17
New

Hourly Weather History & Observations

Time (EEST) Temp. Heat Index Dew Point Humidity Pressure Visibility Wind Dir Wind Speed Gust Speed Precip Events Conditions
12:20 AM 82.4 °F - 46.4 °F 28% 29.74 in - ENE 4.6 mph - N/A   Clear
12:50 AM 80.6 °F - 46.4 °F 30% 29.74 in - NE 5.8 mph - N/A   Clear
1:20 AM 80.6 °F - 46.4 °F 30% 29.74 in - NNE 9.2 mph - N/A   Clear
1:50 AM 80.6 °F - 50.0 °F 34% 29.74 in - NE 10.4 mph - N/A   Clear
2:20 AM 78.8 °F - 48.2 °F 34% 29.74 in - NE 6.9 mph - N/A   Clear
3:20 AM 80.6 °F - 46.4 °F 30% 29.74 in - NE 5.8 mph - N/A   Clear
3:50 AM 78.8 °F - 46.4 °F 32% 29.74 in - ENE 4.6 mph - N/A   Clear
4:20 AM 78.8 °F - 46.4 °F 32% 29.74 in - NNE 6.9 mph - N/A   Clear
4:50 AM 78.8 °F - 46.4 °F 32% 29.74 in - NNE 9.2 mph - N/A   Clear
5:20 AM 78.8 °F - 48.2 °F 34% 29.74 in - North 9.2 mph - N/A   Clear
5:50 AM 73.4 °F - 55.4 °F 53% 29.77 in - Variable 2.3 mph - N/A   Clear
6:20 AM 75.2 °F - 55.4 °F 50% 29.77 in - Variable 2.3 mph - N/A   Clear
6:50 AM 82.4 °F - 48.2 °F 30% 29.77 in - NE 5.8 mph - N/A   Clear
7:20 AM 84.2 °F - 51.8 °F 33% 29.77 in - NNE 6.9 mph - N/A   Clear
7:50 AM 89.6 °F - 50.0 °F 26% 29.77 in - North 10.4 mph - N/A   Clear
8:20 AM 91.4 °F 89.4 °F 55.4 °F 29% 29.77 in - North 8.1 mph - N/A   Clear
8:50 AM 100.4 °F 98.4 °F 53.6 °F 21% 29.77 in - NNE 9.2 mph - N/A   Clear
9:20 AM 98.6 °F - 51.8 °F 21% 29.77 in - North 8.1 mph - N/A   Clear
9:50 AM 100.4 °F - 51.8 °F 20% 29.77 in - Variable 4.6 mph - N/A   Clear
10:20 AM 102.2 °F - 48.2 °F 16% 29.77 in - NNW 5.8 mph - N/A   Clear
10:50 AM 102.2 °F - 51.8 °F 18% 29.77 in - NW 6.9 mph - N/A   Clear
11:20 AM 105.8 °F - 42.8 °F 12% 29.77 in - NW 5.8 mph - N/A   Clear
11:50 AM 105.8 °F - 41.0 °F 11% 29.77 in - WNW 5.8 mph - N/A   Clear
12:20 PM 107.6 °F - 42.8 °F 11% 29.74 in - West 5.8 mph - N/A   Clear
12:50 PM 107.6 °F - 42.8 °F 11% 29.74 in - West 6.9 mph - N/A   Clear
1:20 PM 107.6 °F - 41.0 °F 10% 29.71 in - West 6.9 mph - N/A   Clear
1:50 PM 109.4 °F - 41.0 °F 10% 29.71 in 6.2 mi WSW 5.8 mph - N/A   Partly Cloudy
2:20 PM 107.6 °F - 41.0 °F 10% 29.71 in 6.2 mi West 6.9 mph - N/A   Partly Cloudy
2:50 PM 109.4 °F - 42.8 °F 11% 29.71 in 6.2 mi West 5.8 mph - N/A   Partly Cloudy
3:20 PM 109.4 °F - 42.8 °F 11% 29.68 in 6.2 mi SW 5.8 mph - N/A   Partly Cloudy
3:50 PM 111.2 °F - 44.6 °F 11% 29.68 in 6.2 mi SW 4.6 mph - N/A   Partly Cloudy
4:20 PM 109.4 °F - 44.6 °F 11% 29.68 in 6.2 mi SSW 5.8 mph - N/A   Partly Cloudy
4:50 PM 109.4 °F - 42.8 °F 11% 29.68 in 6.2 mi WSW 6.9 mph - N/A   Partly Cloudy
5:20 PM 109.4 °F - 39.2 °F 9% 29.68 in 6.2 mi SW 5.8 mph - N/A   Partly Cloudy
5:50 PM 107.6 °F - 42.8 °F 11% 29.68 in 6.2 mi WSW 2.3 mph - N/A   Partly Cloudy
6:20 PM 105.8 °F 104.3 °F 53.6 °F 18% 29.68 in 6.2 mi SSW 3.5 mph - N/A   Partly Cloudy
6:50 PM 104.0 °F - 48.2 °F 15% 29.68 in - Calm Calm - N/A   Clear
7:20 PM 100.4 °F 98.8 °F 55.4 °F 22% 29.68 in - Calm Calm - N/A   Clear
7:50 PM 93.2 °F - 51.8 °F 24% 29.68 in - Calm Calm - N/A   Clear
8:20 PM 95.0 °F 92.7 °F 53.6 °F 25% 29.68 in - Calm Calm - N/A   Clear
8:50 PM 89.6 °F - 51.8 °F 27% 29.71 in - Calm Calm - N/A   Clear
9:20 PM 95.0 °F - 39.2 °F 14% 29.71 in - NE 10.4 mph - N/A   Clear
9:50 PM 95.0 °F - 42.8 °F 16% 29.71 in - NNE 5.8 mph - N/A   Clear
10:20 PM 93.2 °F - 41.0 °F 16% 29.74 in - NNE 5.8 mph - N/A   Clear
10:50 PM 91.4 °F - 42.8 °F 18% 29.74 in - NNE 4.6 mph - N/A   Clear
11:20 PM 93.2 °F - 42.8 °F 17% 29.71 in - Variable 3.5 mph - N/A   Clear
11:50 PM 95.0 °F - 39.2 °F 14% 29.74 in - Variable 2.3 mph - N/A   Clear